TimeEDT,TemperatureF,Dew PointF,Humidity,Sea Level PressureIn,VisibilityMPH,Wind Direction,Wind SpeedMPH,Gust SpeedMPH,PrecipitationIn,Events,Conditions,WindDirDegrees,DateUTC
12:43 AM,44.6,42.8,93,29.74,5.0,NE,9.2,-,0.03,Rain,Light Rain,50,2013-10-16 04:43:00
12:53 AM,45.0,43.0,93,29.76,5.0,NE,8.1,-,0.04,Rain,Light Rain,40,2013-10-16 04:53:00
1:04 AM,44.6,42.8,93,29.73,6.0,NNE,10.4,-,0.00,Rain,Light Rain,30,2013-10-16 05:04:00
1:53 AM,45.0,42.1,90,29.75,10.0,NNE,13.8,19.6,0.01,,Overcast,30,2013-10-16 05:53:00
2:42 AM,44.6,41.0,87,29.73,10.0,NNE,11.5,21.9,N/A,,Overcast,20,2013-10-16 06:42:00
2:53 AM,45.0,41.0,86,29.75,10.0,NNE,13.8,21.9,N/A,,Overcast,30,2013-10-16 06:53:00
3:13 AM,44.6,42.8,93,29.73,10.0,North,13.8,20.7,N/A,,Overcast,10,2013-10-16 07:13:00
3:29 AM,44.6,42.8,93,29.73,10.0,NNE,15.0,21.9,N/A,,Overcast,30,2013-10-16 07:29:00
3:53 AM,45.0,41.0,86,29.75,10.0,NNE,13.8,20.7,N/A,,Overcast,30,2013-10-16 07:53:00
4:11 AM,44.6,41.0,87,29.73,10.0,NNE,11.5,21.9,N/A,,Overcast,30,2013-10-16 08:11:00
4:50 AM,44.6,41.0,87,29.73,10.0,North,16.1,23.0,N/A,,Overcast,10,2013-10-16 08:50:00
4:53 AM,45.0,41.0,86,29.75,10.0,North,11.5,23.0,N/A,,Overcast,10,2013-10-16 08:53:00
5:53 AM,44.1,41.0,89,29.76,10.0,North,12.7,-,N/A,,Overcast,360,2013-10-16 09:53:00
6:27 AM,44.6,39.2,81,29.75,10.0,North,8.1,18.4,N/A,,Overcast,10,2013-10-16 10:27:00
6:34 AM,44.6,39.2,81,29.75,10.0,North,12.7,18.4,N/A,,Overcast,350,2013-10-16 10:34:00
6:53 AM,44.1,39.9,85,29.78,10.0,North,9.2,-,N/A,,Overcast,10,2013-10-16 10:53:00
7:53 AM,44.1,39.0,82,29.79,10.0,North,11.5,-,N/A,,Overcast,360,2013-10-16 11:53:00
8:44 AM,42.8,39.2,87,29.78,10.0,NNW,12.7,21.9,N/A,,Overcast,340,2013-10-16 12:44:00
8:53 AM,43.0,39.0,86,29.81,10.0,North,18.4,21.9,N/A,,Overcast,350,2013-10-16 12:53:00
9:53 AM,43.0,37.9,82,29.82,10.0,NNW,10.4,-,N/A,,Overcast,340,2013-10-16 13:53:00
10:53 AM,43.0,37.9,82,29.82,10.0,NNW,11.5,-,N/A,,Overcast,330,2013-10-16 14:53:00
11:53 AM,44.1,37.9,79,29.83,10.0,NNW,12.7,18.4,N/A,,Overcast,330,2013-10-16 15:53:00
12:36 PM,44.6,37.4,76,29.81,10.0,NW,12.7,-,N/A,,Overcast,320,2013-10-16 16:36:00
12:53 PM,45.0,37.9,76,29.84,10.0,NW,11.5,18.4,N/A,,Overcast,320,2013-10-16 16:53:00
1:53 PM,45.0,37.0,74,29.84,10.0,NW,12.7,-,N/A,,Overcast,320,2013-10-16 17:53:00
2:53 PM,45.0,37.0,74,29.83,10.0,NW,11.5,-,N/A,,Overcast,320,2013-10-16 18:53:00
3:53 PM,45.0,36.0,71,29.83,10.0,NNW,11.5,-,N/A,,Overcast,330,2013-10-16 19:53:00
4:53 PM,45.0,34.0,65,29.84,10.0,WNW,11.5,-,N/A,,Overcast,290,2013-10-16 20:53:00
5:53 PM,45.0,33.1,63,29.84,10.0,WNW,11.5,-,N/A,,Overcast,300,2013-10-16 21:53:00
6:53 PM,43.0,35.1,74,29.85,10.0,West,11.5,-,N/A,,Mostly Cloudy,280,2013-10-16 22:53:00
7:14 PM,41.0,33.8,76,29.83,10.0,West,6.9,-,N/A,,Scattered Clouds,270,2013-10-16 23:14:00
7:53 PM,39.0,33.1,79,29.87,10.0,West,4.6,-,N/A,,Clear,260,2013-10-16 23:53:00
8:53 PM,36.0,33.1,89,29.87,10.0,Calm,Calm,-,N/A,,Clear,0,2013-10-17 00:53:00
9:53 PM,30.0,28.0,92,29.88,10.0,Calm,Calm,-,N/A,,Clear,0,2013-10-17 01:53:00
10:53 PM,32.0,28.9,88,29.87,10.0,Calm,Calm,-,N/A,,Clear,0,2013-10-17 02:53:00
11:53 PM,35.1,32.0,89,29.86,10.0,Calm,Calm,-,N/A,,Clear,0,2013-10-17 03:53:00